EW5770 Weather Reports


Display with metric or nautical units.
time (UTC)temp
F
wind
direction
speed
MPH
gust
MPH
rain 1hr
in
rain 24hr
in
rain mn
in
humidity
%
barometer
mb
20260904091219 84 234 0.0 1.0 0.00 0.00 0.00 63 1019.2
20260904090228 85 0 0.0 0.0 0.00 0.00 0.00 59 1019.3
20260904085221 84 0 0.0 0.0 0.00 0.00 0.00 58 1019.2
20260904084221 83 0 0.0 0.0 0.00 0.00 0.00 58 1019.1
20260904083227 82 0 0.0 0.0 0.00 0.00 0.00 60 1019.1
20260904082219 81 0 0.0 0.0 0.00 0.00 0.00 61 1019.0
20260904081222 79 0 0.0 0.0 0.00 0.00 0.00 63 1019.1
20260904080221 78 0 0.0 0.0 0.00 0.00 0.00 64 1019.1
20260904075220 77 0 0.0 0.0 0.00 0.00 0.00 65 1019.2
20260904074227 76 0 0.0 0.0 0.00 0.00 0.00 66 1019.1
20260904073225 75 0 0.0 0.0 0.00 0.00 0.00 67 1019.0
20260904072218 74 0 0.0 0.0 0.00 0.00 0.00 69 1019.0
20260904071227 74 0 0.0 0.0 0.00 0.00 0.00 69 1019.1
20260904070219 73 0 0.0 0.0 0.00 0.00 0.00 70 1019.0
20260904065219 72 0 0.0 0.0 0.00 0.00 0.00 71 1019.0
20260904064220 71 0 0.0 0.0 0.00 0.00 0.00 72 1019.0
20260904062219 70 0 0.0 0.0 0.00 0.00 0.00 73 1018.9
20260904061218 70 0 0.0 0.0 0.00 0.00 0.00 74 1018.8
20260904055220 70 0 0.0 0.0 0.00 0.00 0.00 74 1018.7
20260904054220 69 0 0.0 0.0 0.00 0.00 0.00 75 1018.8
20260904053220 68 0 0.0 0.0 0.00 0.00 0.00 76 1018.8
20260904052218 68 0 0.0 0.0 0.00 0.00 0.00 77 1018.9
20260904051218 68 0 0.0 0.0 0.00 0.00 0.00 76 1018.7
20260904050219 69 0 0.0 0.0 0.00 0.00 0.00 75 1018.7
20260904045219 68 0 0.0 0.0 0.00 0.00 0.00 76 1018.6
20260904044227 68 0 0.0 0.0 0.00 0.00 0.00 75 1018.6
20260904043227 67 0 0.0 0.0 0.00 0.00 0.00 78 1018.5
20260904042221 67 0 0.0 0.0 0.00 0.00 0.00 78 1018.4
20260904041226 67 0 0.0 0.0 0.00 0.00 0.00 79 1018.5
20260904040226 68 0 0.0 0.0 0.00 0.00 0.00 75 1018.4
20260904034225 69 0 0.0 0.0 0.00 0.00 0.00 73 1018.5
20260904033220 68 0 0.0 0.0 0.00 0.00 0.00 75 1018.4
20260904032219 69 0 0.0 0.0 0.00 0.00 0.00 74 1018.4
20260904031225 68 0 0.0 0.0 0.00 0.00 0.00 76 1018.4
20260904030225 67 0 0.0 0.0 0.00 0.00 0.00 77 1018.3
20260904025227 67 0 0.0 0.0 0.00 0.00 0.00 77 1018.3
20260904024222 67 0 0.0 0.0 0.00 0.00 0.00 77 1018.3
20260904022219 68 0 0.0 0.0 0.00 0.00 0.00 76 1018.2
20260904021221 69 0 0.0 0.0 0.00 0.00 0.00 72 1018.2
20260904020227 69 0 0.0 0.0 0.00 0.00 0.00 74 1018.2
20260904015220 68 0 0.0 0.0 0.00 0.00 0.00 76 1018.2
20260904014220 69 0 0.0 0.0 0.00 0.00 0.00 75 1018.2
20260904013221 70 0 0.0 0.0 0.00 0.00 0.00 73 1018.3
20260904012219 70 0 0.0 0.0 0.00 0.00 0.00 73 1018.2
20260904011220 70 0 0.0 0.0 0.00 0.00 0.00 74 1018.2
20260904010222 70 0 0.0 0.0 0.00 0.00 0.00 73 1018.3
20260904005222 70 0 0.0 0.0 0.00 0.00 0.00 75 1018.3
20260904004226 70 0 0.0 0.0 0.00 0.00 0.00 76 1018.2
20260904002219 69 0 0.0 0.0 0.00 0.00 0.00 78 1018.3
20260904001227 70 0 0.0 0.0 0.00 0.00 0.00 77 1018.3
20260904000228 69 0 0.0 0.0 0.00 0.00 0.00 80 1018.4
20260903235225 71 0 0.0 0.0 0.00 0.00 0.00 76 1018.4
20260903234218 71 0 0.0 0.0 0.00 0.00 0.00 79 1018.3
20260903233218 71 0 0.0 0.0 0.00 0.00 0.00 78 1018.3
20260903232218 71 0 0.0 0.0 0.00 0.00 0.00 78 1018.3
20260903231218 71 0 0.0 0.0 0.00 0.00 0.00 78 1018.3
20260903230218 72 0 0.0 0.0 0.00 0.00 0.00 78 1018.3
20260903224219 71 0 0.0 0.0 0.00 0.00 0.00 81 1018.4
20260903223219 71 0 0.0 0.0 0.00 0.00 0.00 84 1018.3
20260903221218 72 0 0.0 0.0 0.00 0.00 0.00 82 1018.3
20260903220222 72 0 0.0 0.0 0.00 0.00 0.00 82 1018.4
20260903215219 72 0 0.0 0.0 0.00 0.00 0.00 82 1018.4
20260903214219 72 0 0.0 0.0 0.00 0.00 0.00 83 1018.4
20260903213219 73 0 0.0 0.0 0.00 0.00 0.00 83 1018.4
20260903212220 73 0 0.0 0.0 0.00 0.00 0.00 83 1018.3
20260903210219 74 0 0.0 0.0 0.00 0.00 0.00 83 1018.2
20260903205218 73 0 0.0 0.0 0.00 0.00 0.00 82 1018.2
20260903204218 74 0 0.0 0.0 0.00 0.00 0.00 82 1018.2
20260903203218 74 0 0.0 0.0 0.00 0.00 0.00 82 1018.2
20260903201218 74 0 0.0 0.0 0.00 0.00 0.00 81 1018.1
20260903194219 75 0 0.0 0.0 0.00 0.00 0.00 80 1018.1
20260903192219 76 0 0.0 0.0 0.00 0.00 0.00 78 1018.0
20260903191219 76 0 0.0 0.0 0.00 0.00 0.00 78 1017.9
20260903190219 76 0 0.0 0.0 0.00 0.00 0.00 76 1017.9
20260903185219 76 0 0.0 0.0 0.00 0.00 0.00 77 1017.8
20260903184219 77 0 0.0 0.0 0.00 0.00 0.00 77 1017.7
20260903183219 77 0 0.0 0.0 0.00 0.00 0.00 77 1017.6
20260903182219 78 0 0.0 0.0 0.00 0.00 0.00 76 1017.5
20260903181219 78 0 0.0 0.0 0.00 0.00 0.00 74 1017.4
20260903180219 78 0 0.0 0.0 0.00 0.00 0.00 75 1017.4
20260903175219 79 0 0.0 0.0 0.00 0.00 0.00 75 1017.3
20260903173219 80 0 0.0 0.0 0.00 0.00 0.00 71 1017.3
20260903172219 81 0 0.0 0.0 0.00 0.00 0.00 70 1017.3
20260903171219 82 0 0.0 0.0 0.00 0.00 0.00 68 1017.3
20260903170219 83 0 0.0 0.0 0.00 0.00 0.00 65 1017.2
20260903165219 83 0 0.0 0.0 0.00 0.00 0.00 65 1017.2
20260903163219 85 0 0.0 0.0 0.00 0.00 0.00 61 1017.2
20260903162220 86 140 0.0 1.0 0.00 0.00 0.00 61 1017.1
20260903161219 85 0 0.0 0.0 0.00 0.00 0.00 63 1017.1
20260903154218 85 0 0.0 0.0 0.00 0.00 0.00 64 1017.0
20260903152219 85 225 0.0 1.0 0.00 0.00 0.00 64 1017.2
20260903151220 85 233 0.0 1.0 0.00 0.00 0.00 65 1017.2
20260903150219 85 232 0.0 1.0 0.00 0.00 0.00 67 1017.1
20260903145219 84 241 0.0 1.0 0.00 0.00 0.00 68 1017.2
20260903144220 85 246 0.0 1.0 0.00 0.00 0.00 66 1017.2
20260903143220 85 0 0.0 0.0 0.00 0.00 0.00 66 1017.4
20260903142219 85 6 0.0 1.0 0.00 0.00 0.00 66 1017.5
20260903141219 84 239 0.0 1.0 0.00 0.00 0.00 68 1017.5
20260903140219 84 235 0.0 2.0 0.00 0.00 0.00 69 1017.5
20260903135219 85 242 1.0 3.0 0.00 0.00 0.00 69 1017.6
20260903134219 85 244 0.0 2.0 0.00 0.00 0.00 68 1017.7
20260903131219 85 238 0.0 1.0 0.00 0.00 0.00 68 1017.7
20260903130219 85 250 0.0 1.0 0.00 0.00 0.00 69 1017.7
20260903125219 85 254 0.0 1.0 0.00 0.00 0.00 68 1017.6
20260903124219 85 243 0.0 1.0 0.00 0.00 0.00 68 1017.7
20260903123219 85 218 0.0 1.0 0.00 0.00 0.00 68 1017.5
20260903122219 86 238 0.0 8.0 0.00 0.00 0.00 67 1017.6
20260903121219 87 231 0.0 1.0 0.00 0.00 0.00 64 1017.5
20260903120219 87 202 0.0 4.0 0.00 0.00 0.00 63 1017.5
20260903114220 87 232 0.0 2.0 0.00 0.00 0.00 63 1017.7
20260903113219 87 234 0.0 1.0 0.00 0.00 0.00 63 1017.8
20260903112219 87 223 0.0 1.0 0.00 0.00 0.00 62 1017.7
20260903111220 88 173 0.0 3.0 0.00 0.00 0.00 62 1017.8
20260903110219 87 168 0.0 1.0 0.00 0.00 0.00 62 1018.1
20260903105219 86 217 0.0 1.0 0.00 0.00 0.00 63 1018.1
20260903104219 87 226 0.0 1.0 0.00 0.00 0.00 62 1018.2
20260903103219 88 222 0.0 1.0 0.00 0.00 0.00 60 1018.3
20260903102219 89 0 0.0 0.0 0.00 0.00 0.00 55 1018.4
20260903101220 87 0 0.0 0.0 0.00 0.00 0.00 55 1018.4
20260903100219 86 0 0.0 0.0 0.00 0.00 0.00 56 1018.5
20260903095220 85 124 0.0 1.0 0.00 0.00 0.00 59 1018.5
20260903094219 85 98 0.0 1.0 0.00 0.00 0.00 57 1018.5